Flag for Spain Weather past 2 weeks in Málaga, Spain

70 °F

Passing clouds.

Feels Like: 70 °F
Forecast: 53 / 69 °F
Wind: 21 mph from West

Location: Malaga / Aeropuerto

Current Time: Nov 26, 2015 at 2:30:07 PM

Latest Report: Nov 26, 2015 at 1:30 PM

Visibility: N/A

Pressure: 30.04 "Hg

Humidity: 33%

Dew point: 39 °F

Location of MálagaLocation

Historic Weather in Málaga — Graph


Málaga temperature yesterday

Maximum temperature yesterday: 64 °F (at 2:00 PM)
Minimum temperature yesterday: 54 °F (at 12:00 AM)
Average temperature yesterday: 58 °F

Past Weeks' High & Low Weather Summary

High73 °F (Nov 16, 2:00 PM)100% (Nov 12, 2:30 AM)30.45 "Hg (Nov 12, 2:30 AM)
Low39 °F (Nov 24, 5:00 AM)26% (Nov 23, 7:00 PM)29.92 "Hg (Nov 21, 5:30 PM)
Average59 °F71%30.25 "Hg
* Reported Nov 11 1:00 PM — Nov 26 1:30 PM, Málaga, Weather by CustomWeather, © 2015

Note: Actual official high and low records may vary slightly from our data, if they occured in-between our weather recording intervals... More about our weather records


Málaga weather history for previous 24 hours

Time TempWeatherWind HumidityBarometerVisibility
1:30 PM
Thu, Nov 26
70 °FPassing clouds.21 mph33%30.04 "HgN/A
1:00 PM68 °FSunny.22 mph38%30.07 "Hg10 mi
12:30 PM66 °FSunny.22 mph43%30.07 "Hg10 mi
12:00 PM64 °FPassing clouds.22 mph49%30.09 "HgN/A
11:30 AM63 °FPassing clouds.23 mph56%30.09 "HgN/A
11:00 AM64 °FPassing clouds.23 mph49%30.09 "HgN/A
10:30 AM63 °FSunny.23 mph52%30.12 "Hg10 mi
10:00 AM61 °FPassing clouds.14 mph59%30.12 "HgN/A
9:30 AM61 °FPassing clouds.12 mph55%30.15 "HgN/A
9:00 AM59 °FPassing clouds.15 mph59%30.12 "HgN/A
8:30 AM57 °FPassing clouds.9 mph63%30.12 "HgN/A
8:00 AM57 °FPassing clouds.13 mph63%30.12 "HgN/A
7:30 AM57 °FPassing clouds.9 mph67%30.12 "HgN/A
7:00 AM57 °FClear.13 mph67%30.12 "Hg10 mi
6:30 AM57 °FClear.14 mph67%30.12 "Hg10 mi
6:00 AM57 °FClear.15 mph67%30.15 "Hg10 mi
5:30 AM57 °FClear.12 mph67%30.15 "Hg10 mi
4:30 AM57 °FPassing clouds.9 mph67%30.15 "HgN/A
4:00 AM59 °FPassing clouds.12 mph63%30.18 "HgN/A
3:30 AM59 °FPassing clouds.15 mph59%30.18 "HgN/A
3:00 AM59 °FPassing clouds.13 mph63%30.18 "HgN/A
2:30 AM59 °FClear.16 mph59%30.18 "Hg10 mi
2:00 AM59 °FClear.12 mph59%30.18 "Hg10 mi
1:30 AM59 °FClear.10 mph59%30.21 "Hg10 mi
1:00 AM59 °FClear.10 mph59%30.21 "Hg10 mi
12:30 AM61 °FClear.12 mph55%30.21 "Hg10 mi
12:00 AM61 °FClear.10 mph55%30.24 "Hg10 mi
11:30 PM
Wed, Nov 25
63 °FPassing clouds.16 mph52%30.24 "HgN/A
11:00 PM61 °FPassing clouds.16 mph55%30.24 "HgN/A
10:30 PM63 °FClear.17 mph52%30.24 "Hg10 mi
10:00 PM61 °FClear.15 mph55%30.24 "Hg10 mi
9:30 PM59 °FClear.14 mph55%30.24 "Hg10 mi
9:00 PM55 °FClear.9 mph67%30.24 "Hg10 mi
8:30 PM59 °FClear.8 mph59%30.24 "Hg10 mi
8:00 PM61 °FClear.14 mph52%30.24 "Hg10 mi
7:30 PM61 °FClear.15 mph52%30.24 "Hg10 mi
7:00 PM63 °FClear.24 mph49%30.21 "Hg10 mi
6:30 PM63 °FClear.25 mph49%30.21 "Hg10 mi
6:00 PM63 °FSunny.23 mph49%30.21 "Hg10 mi
5:30 PM63 °FSunny.20 mph49%30.21 "Hg10 mi
5:00 PM64 °FSunny.17 mph46%30.18 "Hg10 mi
4:30 PM64 °FSunny.16 mph46%30.18 "Hg10 mi
4:00 PM64 °FPassing clouds.14 mph49%30.18 "HgN/A
3:30 PM64 °FPassing clouds.20 mph46%30.21 "HgN/A
3:00 PM64 °FSunny.17 mph46%30.21 "Hg10 mi
2:30 PM64 °FPassing clouds.14 mph43%30.24 "HgN/A
2:00 PM64 °FPassing clouds.16 mph49%30.24 "HgN/A
Weather by CustomWeather, © 2015

See weather overviewHow to use our weather pages